Message
Cliquez sur le résultat pour voir la partie ou sur les pseudos pour voir leur fiche.
Les parties sont maintenant conservées 3 ans dans la base.
Cliquez ici pour télécharger les de patau en 2018.
Cliquez ici pour télécharger les de patau en 2017. ( Depuis le 21/06/2017 les parties étaient conservées moins longtemps avant )


Date
Tournoi
Blancs
Noirs
Res.
23/06/2018Défipatauwendydydy1-0
22/06/2018Tournoi n18277mick13patau0-1
22/06/2018Tournoi n18212legrillonpatau0-1
22/06/2018Tournoi n18180patautjspret1-0
22/06/2018Défibilitispatau0-1
22/06/2018Tournoi n18171mistralgagnantpatau1-0
22/06/2018Défijetjet91330patau1-0
22/06/2018Tournoi n18171pataujazzzz1-0
22/06/2018Tournoi n18121pataumayaapof1-0
22/06/2018Tournoi n18056kynyopatau1-0
22/06/2018Défiflo71patau0-1
22/06/2018Tournoi n18332upsalinpatau1-0
22/06/2018Défimathador93patau0-1
22/06/2018Tournoi n18332patauverson1-0
22/06/2018Tournoi n18212patauleredoutable0-1
22/06/2018Défipataucramsnellac0-1
22/06/2018Tournoi échelle division 1tifointerpatau1-0
21/06/2018Tournoi n18257bylkapatau1-0
21/06/2018Défipataujajaf19591/2-1/2
21/06/2018Tournoi n18314patauverson1-0
21/06/2018Défipatautemistocles1-0
21/06/2018Défibylkapatau1-0
21/06/2018Défipatauramo1-0
21/06/2018Défialena1patau0-1
21/06/2018Défiriothamuspatau1-0
21/06/2018Défithierry22patau1-0
21/06/2018Coupe Niveau 1patautoutankhamon240-1
20/06/2018Défipataublackbishop1-0
20/06/2018Défizaykapatau1/2-1/2
20/06/2018Tournoi n18156silveurpatau1-0
20/06/2018Coupe Niveau 2pataufly0-1
20/06/2018Défiscarfieldpatau0-1
19/06/2018Défielectronlibrepatau1-0
19/06/2018Tournoi n18027pataububblegum1-0
19/06/2018Tournoi échelle division 1pataudomenico1-0
19/06/2018Tournoi n18076patausaruman1/2-1/2
19/06/2018Défiburgmanpatau0-1
19/06/2018Défibertelsenpatau1-0
19/06/2018Défipataujajaf19591/2-1/2
19/06/2018Défipataumandrak1-0
19/06/2018Tournoi n18189vvvvpatau1-0
19/06/2018Tournoi n18137mandrakpatau0-1
19/06/2018Défiephixepatau1-0
18/06/2018Tournoi n18275scarfieldpatau0-1
18/06/2018Tournoi n18270patauverson1/2-1/2
18/06/2018Tournoi n18257upsalinpatau1-0
18/06/2018Tournoi n18200youliyoulipatau1-0
18/06/2018Tournoi n18284versonpatau1-0
18/06/2018Défipataubonamur0-1
18/06/2018Coupe Niveau 3baranowskypatau1/2-1/2
18/06/2018Tournoi n18195brettsinclairpatau0-1
18/06/2018Coupe Niveau 2flypatau1-0
18/06/2018Eq:LES CHATTERBOX-Pirates du Mat :pataualizarine0-1
18/06/2018Défiflypatau1-0
18/06/2018Tournoi n17444patauchomi641-0
18/06/2018Défizozopatau1-0
16/06/2018Tournoi n17881philoupatau0-1
16/06/2018Tournoi n18211patauclemm1-0
16/06/2018Tournoi n17951chomi64patau1-0
15/06/2018Coupe Niveau 2patauverson1-0
15/06/2018Défipataualainv0-1
15/06/2018Coupe Niveau 3patauverson1-0
15/06/2018Coupe Niveau 1pataudaniel11-0
15/06/2018Eq:LA CITE ARDENTE-LES CHATTERBOX :patauhalhor0-1
15/06/2018Tournoi n18270patautiounet1-0
15/06/2018Tournoi n18193magepatau0-1
15/06/2018Défitiounetpatau0-1
15/06/2018Coupe Niveau 2senegauloispatau0-1
15/06/2018Tournoi n18203pataupionfou0-1
15/06/2018Défibertelsenpatau1-0
15/06/2018Défipatauthierry061-0
15/06/2018Eq:LA CITE ARDENTE-LES CHATTERBOX :halhorpatau1-0
15/06/2018Défiblueberrypatau1-0
15/06/2018Tournoi n18275patauleredoutable1-0
15/06/2018Défipatautartu1-0
15/06/2018Tournoi n18277patauleredoutable1-0
15/06/2018Défipataudamotte0-1
15/06/2018Tournoi n18266patauarno1-0
14/06/2018Tournoi échelle division 1dragonpatau0-1
14/06/2018Défiboxitpatau1-0
14/06/2018Tournoi n18221leredoutablepatau0-1
14/06/2018Défipataujconetti0-1
14/06/2018Tournoi n18211leredoutablepatau0-1
14/06/2018Tournoi n18258upsalinpatau0-1
14/06/2018Tournoi n18277scarfieldpatau1-0
14/06/2018Tournoi n17810jyfpatau0-1
14/06/2018Tournoi n18124patauarcadie1/2-1/2
13/06/2018Tournoi n18219versonpatau0-1
13/06/2018Défipoireaupatau0-1
13/06/2018Tournoi n18137pataugeantvert1-0
13/06/2018Défihberliozpatau0-1
13/06/2018Tournoi n18275patausimer1-0
13/06/2018Tournoi n18257patauarno1/2-1/2
13/06/2018Défigeantvertpatau0-1
13/06/2018Défipatautinenfant0-1
13/06/2018Tournoi n18277patausimer1-0
13/06/2018Tournoi échelle division 1patauverson1-0
13/06/2018Défipatausilveur0-1
13/06/2018Tournoi n18140legrospatau1-0
13/06/2018Défiartistepeintrepatau1-0

Page suivante...